Location: Unspecified
(58.7730°N, 5.8460°E)
Time: 07:51:58
(UTC+01:00)

Resurs 1-4 Rocket - Visible Passes

Search period start: 17 January 2018 00:00
Search period end: 27 January 2018 00:00
Orbit: 799 x 814 km, 98.5° (Epoch: 16 January)

Date Brightness Start Highest point End Pass type
(mag) Time Alt. Az. Time Alt. Az. Time Alt. Az.
17 Jan 4.7 03:49:04 10° NNE 03:49:29 12° NNE 03:49:29 12° NNE visible
17 Jan 4.3 05:29:43 10° N 05:30:34 13° N 05:30:34 13° N visible
18 Jan 4.9 03:24:24 10° NNE 03:24:39 11° NNE 03:24:39 11° NNE visible
18 Jan 4.3 05:04:52 10° N 05:05:44 14° N 05:05:44 14° N visible
19 Jan 5.0 02:59:48 10° NNE 02:59:49 10° NNE 02:59:49 10° NNE visible
19 Jan 4.4 04:40:03 10° N 04:40:54 14° N 04:40:54 14° N visible
19 Jan 4.3 06:21:33 10° NNW 06:22:00 11° NNW 06:22:00 11° NNW visible
20 Jan 4.5 04:15:18 10° N 04:16:06 14° N 04:16:06 14° N visible
20 Jan 4.2 05:56:15 10° N 05:57:11 12° NNW 05:57:11 12° NNW visible
21 Jan 4.6 03:50:36 10° NNE 03:51:16 14° N 03:51:16 14° N visible
21 Jan 4.2 05:31:16 10° N 05:32:22 14° NNW 05:32:22 14° NNW visible
22 Jan 4.8 03:25:57 10° NNE 03:26:27 13° NNE 03:26:27 13° NNE visible
22 Jan 4.2 05:06:24 10° N 05:07:32 15° N 05:07:32 15° N visible
23 Jan 4.9 03:01:20 10° NNE 03:01:39 12° NNE 03:01:39 12° NNE visible
23 Jan 4.3 04:41:36 10° N 04:42:43 16° N 04:42:43 16° N visible
23 Jan 4.3 06:23:07 10° NNW 06:23:49 11° NNW 06:23:49 11° NNW visible
24 Jan 5.1 02:36:47 10° NNE 02:36:50 10° NNE 02:36:50 10° NNE visible
24 Jan 4.4 04:16:50 10° N 04:17:54 16° N 04:17:54 16° N visible
24 Jan 4.2 05:57:49 10° N 05:59:00 13° NNW 05:59:00 13° NNW visible
25 Jan 4.5 03:52:08 10° NNE 03:53:06 16° N 03:53:06 16° N visible
25 Jan 4.2 05:32:49 10° N 05:34:11 14° NNW 05:34:11 14° NNW visible
26 Jan 4.6 03:27:28 10° NNE 03:28:18 15° NNE 03:28:18 15° NNE visible
26 Jan 4.1 05:07:56 10° N 05:09:23 16° N 05:09:23 16° N visible
